Powrót do katalogu

ARIANE 3 DEB

SYLDA

AktywnyGTO
NORAD 15166·DEBRIS·🇫🇷 France

Wystrzelony Aug 4, 1984 z Guiana Space Centre

Loading…

TLE

Starzejące sięSource: Space-Track

Epoka: Sep 14, 2026, 08:21 UTC

1 15166U 84081D   26257.34838646 -.00000867  00000-0 -14400-1 0  9997
2 15166   6.3940 210.1086 6993255 234.4175  39.3501  2.42873563278352

Śledź ARIANE 3 DEB w czasie rzeczywistym z AllMySat

Download on the App Store